Regional Weather Roundup
Issued by NWS

Home | Current Version | Previous Version | Text Only | Print | Product List | Glossary Off
Versions: 1 2 3 4 5 6 7 8 9 10 11 12 13 14 15 16 17 18 19 20 21 22 23 24 25 26 27 28 29 30 31 32 33 34 35 36 37 38 39 40 41 42 43 44 45 46 47 48 49 50

121
ASUS43 KLSX 190057
RWRMO

WEATHER SUMMARY FOR MISSOURI
NATIONAL WEATHER SERVICE SPRINGFIELD MO
800 PM CDT MON SEP 18 2017

NOTE: "FAIR" INDICATES FEW OR NO CLOUDS BELOW 12,000 FEET WITH NO
       SIGNIFICANT WEATHER AND/OR OBSTRUCTIONS TO VISIBILITY.
       CURRENT SKY AND/OR WEATHER CONDITIONS ARE NOT AVAILABLE FOR
       CHILLICOTHE AND FARMINGTON.

MOZ001>031-035>038-043-044-053-054-190200-
...NORTHERN AND WESTERN MISSOURI...

CITY           SKY/WX    TMP DP  RH WIND       PRES   REMARKS
KANSAS CTY INT PTCLDY    67  66  97 S7        29.92F
LEE`S SUMMIT   MOCLDY    70  68  93 SE5       29.94F
ST JOSEPH      CLEAR     70  68  93 SE5       29.91R
CHILLICOTHE      N/A     70  69  97 CALM      29.95S

$$
MOZ066>068-077>081-088>096-101>105-190200-
...SOUTHWEST MISSOURI...

CITY           SKY/WX    TMP DP  RH WIND       PRES   REMARKS
SPRINGFIELD    CLEAR     71  66  84 SW5       29.95F
JOPLIN         CLEAR     73  67  81 CALM      29.95R
BRANSON        PTCLDY    72  66  83 SE3       29.99S

$$
MOZ032>034-039>042-045>050-055>058-069>072-190200-
...CENTRAL MISSOURI...

CITY           SKY/WX    TMP DP  RH WIND       PRES   REMARKS
COLUMBIA       NOT AVBL
JEFFERSON CITY PTCLDY    69  67  93 CALM      29.95R
ROLLA          CLOUDY    68  67  96 SE7       29.98S
SEDALIA        PTCLDY    70  69  97 SE5       29.97S
WARRENSBURG    PTCLDY    68  64  88 E3        29.95S

$$
MOZ051-052-059>065-190200-
...EAST CENTRAL MISSOURI...

CITY           SKY/WX    TMP DP  RH WIND       PRES   REMARKS
ST LOUIS INTL  LGT RAIN  73  71  93 NW8       29.96R
SPIRIT OF STL  TSTM      70  70 100 W5        29.95R FOG

$$
MOZ072>076-082>087-097>100-106>115-190200-
...SOUTH CENTRAL AND SOUTHEAST MISSOURI...

CITY           SKY/WX    TMP DP  RH WIND       PRES   REMARKS
CAPE GIRARDEAU NOT AVBL
POPLAR BLUFF   PTCLDY    77  71  82 CALM      29.94F
WEST PLAINS    CLOUDY    72  70  93 CALM      30.00R

$$



USA.gov is the U.S. government's official web portal to all federal, state and local government web resources and services.